NSZ4507 ESSA-EDDB

Flight info

Callsign NSZ4507
Flight time N/A
Altitude 36000
Route PETEV N872 ELPAX DCT BIKRU/N0436F370 DCT RODEP T280 KETAP KETAP1L
Aircraft B738/M-SDE2E3FGHIRWXY/LB1

Departure

Time N/A
Airport Stockholm-Arlanda Airport (ESSA)

Arrival

Time 2026-04-30 18:36
Airport Berlin Brandenburg Airport (EDDB)
Time Latitude Longitude Altitude Speed Heading
2026-04-30 17:39 56.96765 14.85863 36339 ft 465 kts 192°
2026-04-30 17:42 56.64983 14.74646 36347 ft 468 kts 191°
2026-04-30 17:43 56.48952 14.69061 36351 ft 470 kts 191°
2026-04-30 17:44 56.29611 14.62386 36349 ft 472 kts 191°
2026-04-30 17:47 56.00683 14.52530 36365 ft 469 kts 191°
2026-04-30 17:48 55.78263 14.44993 36364 ft 467 kts 191°
2026-04-30 17:50 55.52747 14.36523 36375 ft 467 kts 191°
2026-04-30 17:52 55.33533 14.30218 36372 ft 468 kts 191°
2026-04-30 17:54 55.04685 14.20866 36384 ft 469 kts 191°
2026-04-30 17:56 54.79095 14.12161 36397 ft 468 kts 192°
2026-04-30 17:58 54.59961 14.05204 36403 ft 468 kts 191°
2026-04-30 18:00 54.34215 13.97487 34614 ft 473 kts 186°
2026-04-30 18:00 54.24407 13.95312 32912 ft 470 kts 186°
2026-04-30 18:01 54.17966 13.93814 32030 ft 463 kts 186°
2026-04-30 18:02 54.08484 13.91602 30789 ft 454 kts 186°
2026-04-30 18:02 53.99192 13.89450 29479 ft 443 kts 186°
2026-04-30 18:03 53.90140 13.87364 28212 ft 432 kts 186°
2026-04-30 18:04 53.82280 13.85561 27143 ft 424 kts 185°
2026-04-30 18:05 53.70726 13.82922 25570 ft 414 kts 185°
2026-04-30 18:06 53.59424 13.80356 24027 ft 408 kts 185°
2026-04-30 18:07 53.48255 13.77832 22339 ft 400 kts 184°
2026-04-30 18:08 53.40052 13.75987 21195 ft 393 kts 184°
2026-04-30 18:09 53.29343 13.73590 19695 ft 386 kts 184°
2026-04-30 18:10 53.18760 13.71234 18132 ft 381 kts 183°
2026-04-30 18:11 53.08358 13.68926 16606 ft 372 kts 183°
2026-04-30 18:11 53.00729 13.67243 15519 ft 365 kts 183°
2026-04-30 18:12 52.93369 13.64592 14421 ft 369 kts 213°
2026-04-30 18:13 52.90244 13.58195 14128 ft 359 kts 242°
2026-04-30 18:13 52.86635 13.47130 13604 ft 365 kts 243°
2026-04-30 18:14 52.84222 13.39810 13276 ft 360 kts 242°
2026-04-30 18:15 52.80615 13.29022 12809 ft 355 kts 242°
2026-04-30 18:15 52.77025 13.18364 12331 ft 353 kts 241°
2026-04-30 18:16 52.74639 13.11307 12039 ft 351 kts 242°
2026-04-30 18:16 52.72272 13.04326 11731 ft 350 kts 242°
2026-04-30 18:17 52.71088 13.00841 11557 ft 347 kts 242°
2026-04-30 18:17 52.69911 12.97383 11301 ft 343 kts 242°
2026-04-30 18:17 52.67623 12.90677 11052 ft 325 kts 242°
2026-04-30 18:18 52.66534 12.87486 10977 ft 315 kts 242°
2026-04-30 18:18 52.65472 12.84379 10827 ft 308 kts 242°
2026-04-30 18:18 52.64428 12.81331 10607 ft 305 kts 242°
2026-04-30 18:18 52.63384 12.78285 10312 ft 305 kts 242°
2026-04-30 18:19 52.62330 12.75268 10017 ft 303 kts 237°
2026-04-30 18:19 52.60842 12.72873 9727 ft 299 kts 207°
2026-04-30 18:19 52.58931 12.71704 9565 ft 291 kts 188°
2026-04-30 18:19 52.56947 12.71132 9410 ft 289 kts 185°
2026-04-30 18:20 52.54953 12.70630 9256 ft 290 kts 185°
2026-04-30 18:20 52.52958 12.70136 9093 ft 290 kts 185°
2026-04-30 18:20 52.50963 12.69632 8937 ft 289 kts 186°
2026-04-30 18:20 52.48976 12.69121 8786 ft 288 kts 186°
2026-04-30 18:21 52.47003 12.68607 8637 ft 287 kts 186°
2026-04-30 18:21 52.45039 12.68090 8488 ft 285 kts 186°
2026-04-30 18:21 52.43091 12.67574 8344 ft 283 kts 186°
2026-04-30 18:21 52.41177 12.67067 8204 ft 282 kts 186°
2026-04-30 18:22 52.39214 12.66546 8065 ft 282 kts 186°
2026-04-30 18:22 52.35366 12.65524 7782 ft 281 kts 186°
2026-04-30 18:22 52.33436 12.65012 7643 ft 281 kts 186°
2026-04-30 18:23 52.31503 12.64499 7496 ft 281 kts 186°
2026-04-30 18:23 52.29588 12.63990 7347 ft 276 kts 186°
2026-04-30 18:23 52.27707 12.63492 7199 ft 270 kts 186°
2026-04-30 18:23 52.25874 12.63014 7061 ft 263 kts 183°
2026-04-30 18:24 52.22549 12.64328 6811 ft 240 kts 154°
2026-04-30 18:24 52.21019 12.65339 6694 ft 233 kts 154°
2026-04-30 18:24 52.19557 12.66297 6583 ft 221 kts 154°
2026-04-30 18:25 52.18195 12.67300 6433 ft 209 kts 140°
2026-04-30 18:25 52.17068 12.71249 6262 ft 197 kts 91°
2026-04-30 18:25 52.16987 12.73439 6161 ft 188 kts 88°
2026-04-30 18:26 52.17720 12.77203 5929 ft 169 kts 67°
2026-04-30 18:26 52.18176 12.79052 5551 ft 179 kts 68°
2026-04-30 18:26 52.18634 12.80914 5377 ft 175 kts 68°
2026-04-30 18:27 52.19525 12.84547 5162 ft 172 kts 67°
2026-04-30 18:27 52.19968 12.86359 5057 ft 172 kts 67°
2026-04-30 18:28 52.20882 12.89958 4864 ft 172 kts 62°
2026-04-30 18:28 52.21436 12.91691 4762 ft 173 kts 63°
2026-04-30 18:28 52.22434 12.95319 4584 ft 180 kts 66°
2026-04-30 18:29 52.22904 12.97214 4469 ft 180 kts 66°
2026-04-30 18:29 52.24239 13.02860 4157 ft 176 kts 67°
2026-04-30 18:30 52.25105 13.06576 3960 ft 174 kts 67°
2026-04-30 18:30 52.25964 13.10266 3782 ft 174 kts 67°
2026-04-30 18:31 52.26393 13.12111 3674 ft 174 kts 67°
2026-04-30 18:31 52.27255 13.15805 3466 ft 174 kts 67°
2026-04-30 18:32 52.28123 13.19521 3277 ft 176 kts 67°
2026-04-30 18:32 52.28557 13.21377 3168 ft 177 kts 67°
2026-04-30 18:32 52.29438 13.25144 2938 ft 179 kts 67°
2026-04-30 18:33 52.29885 13.27049 2703 ft 179 kts 67°
2026-04-30 18:33 52.30769 13.30819 2221 ft 175 kts 67°
2026-04-30 18:33 52.31202 13.32661 1984 ft 172 kts 66°
2026-04-30 18:34 52.31632 13.34491 1749 ft 173 kts 67°
2026-04-30 18:34 52.32481 13.38101 1301 ft 164 kts 66°
2026-04-30 18:34 52.32883 13.39805 1084 ft 159 kts 66°
2026-04-30 18:35 52.33272 13.41456 878 ft 152 kts 67°
2026-04-30 18:35 52.33649 13.43021 698 ft 146 kts 67°
2026-04-30 18:35 52.34024 13.44599 533 ft 153 kts 69°
2026-04-30 18:36 52.34776 13.47806 152 ft 142 kts 70°
2026-04-30 18:36 52.35078 13.49091 153 ft 102 kts 69°
2026-04-30 18:36 52.35407 13.50415 154 ft 38 kts 53°
2026-04-30 18:37 52.35570 13.50674 157 ft 23 kts 38°
2026-04-30 18:37 52.35612 13.50727 157 ft 0 kts 38°
2026-04-30 18:38 52.35616 13.50732 157 ft 2 kts 32°
2026-04-30 18:38 52.35644 13.50741 157 ft 7 kts 360°
2026-04-30 18:38 52.35703 13.50712 157 ft 11 kts 337°
2026-04-30 18:38 52.35785 13.50659 157 ft 14 kts 339°
2026-04-30 18:39 52.35875 13.50641 157 ft 13 kts 12°
2026-04-30 18:39 52.35963 13.50625 157 ft 13 kts 342°
2026-04-30 18:39 52.36044 13.50574 157 ft 12 kts 338°
2026-04-30 18:39 52.36124 13.50523 157 ft 12 kts 340°
2026-04-30 18:40 52.36202 13.50476 157 ft 12 kts 340°
2026-04-30 18:40 52.36278 13.50429 158 ft 11 kts 338°
2026-04-30 18:40 52.36351 13.50381 158 ft 11 kts 338°
2026-04-30 18:40 52.36422 13.50333 158 ft 11 kts 339°
2026-04-30 18:41 52.36492 13.50290 158 ft 11 kts 339°
2026-04-30 18:41 52.36560 13.50248 158 ft 10 kts 339°
2026-04-30 18:41 52.36625 13.50207 158 ft 10 kts 339°
2026-04-30 18:41 52.36689 13.50169 157 ft 10 kts 348°
2026-04-30 18:42 52.36745 13.50215 157 ft 9 kts 57°
2026-04-30 18:42 52.36802 13.50446 158 ft 12 kts 69°
2026-04-30 18:42 52.36832 13.50575 158 ft 12 kts 69°
2026-04-30 18:45 52.36815 13.50863 158 ft 0 kts 158°